Home > Time Zones > World Clock > Weather > Italy > Bari > Past weeks

Flag for Italy Weather past 2 weeks in Bari, Italy

Now
55 °F

Clear.


Feels Like: 55 °F
Forecast: 49 / 60 °F
Wind: 1 mph from North

Location: Bari / Palese Macchie

Current Time: Apr 18, 2015 at 6:21:27 AM

Latest Report: Apr 18, 2015 at 5:20 AM


Visibility: 10 mi

Pressure: 29.92 "Hg

Humidity: 72%

Dew point: 46 °F

Location of BariLocation

Historic Weather in Bari — Graph

°F

Bari temperature yesterday

Maximum temperature yesterday: 79 °F (at 2:20 PM)
Minimum temperature yesterday: 50 °F (at 6:50 AM)
Average temperature yesterday: 65 °F

Past Weeks' High & Low Weather Summary

 TemperatureHumidityPressure
High93 °F (Apr 11, 7:50 PM)100% (Apr 6, 5:50 AM)30.42 "Hg (Apr 6, 5:50 AM)
Low37 °F (Apr 4, 5:20 AM)22% (Apr 15, 5:50 PM)29.62 "Hg (Apr 5, 5:20 AM)
Average55 °F62%30.12 "Hg
* Reported Apr 3 4:20 AM — Apr 18 4:50 AM, Bari, Weather by CustomWeather, © 2015

Note: Actual official high and low records may vary slightly from our data, if they occured in-between our weather recording intervals... More about our weather records

Advertising

Bari weather history for previous 24 hours

 ConditionsComfort  
Time TempWeatherWind HumidityBarometerVisibility
4:50 AM
Sat, Apr 18
55 °FClear.1 mph72%29.92 "Hg10 mi
4:20 AM55 °FClear.5 mph82%29.95 "Hg10 mi
3:50 AM55 °FClear.5 mph82%29.95 "Hg10 mi
3:20 AM55 °FClear.5 mph82%29.95 "Hg10 mi
2:50 AM55 °FClear.5 mph82%29.95 "Hg10 mi
2:20 AM55 °FClear.5 mph82%29.95 "Hg10 mi
12:50 AM59 °FClear.6 mph72%29.95 "Hg10 mi
12:20 AM59 °FPassing clouds.9 mph72%29.95 "HgN/A
11:50 PM
Fri, Apr 17
59 °FPassing clouds.7 mph72%29.95 "HgN/A
11:20 PM57 °FClear.1 mph67%29.95 "Hg10 mi
10:50 PM61 °FClear.7 mph59%29.95 "Hg10 mi
10:20 PM61 °FClear.6 mph55%29.95 "Hg10 mi
9:50 PM63 °FClear.9 mph49%29.95 "Hg10 mi
9:20 PM63 °FClear.10 mph49%29.95 "Hg10 mi
8:50 PM64 °FPassing clouds.9 mph46%29.95 "HgN/A
8:20 PM64 °FPassing clouds.9 mph46%29.95 "HgN/A
7:50 PM66 °FPassing clouds.9 mph40%29.95 "HgN/A
7:20 PM68 °FPassing clouds.10 mph35%29.95 "HgN/A
6:50 PM70 °FSunny.13 mph33%29.95 "Hg10 mi
6:20 PM72 °FSunny.13 mph36%29.95 "Hg10 mi
5:50 PM75 °FSunny.14 mph25%29.95 "Hg10 mi
5:20 PM77 °FPassing clouds.12 mph28%29.95 "HgN/A
4:50 PM77 °FPassing clouds.9 mph30%29.95 "HgN/A
4:20 PM79 °FPassing clouds.7 mph30%29.95 "HgN/A
3:50 PM77 °FSunny.3 mph30%29.98 "Hg10 mi
3:20 PM79 °FSunny.7 mph28%29.98 "Hg10 mi
2:50 PM79 °FPassing clouds.7 mph24%30.01 "HgN/A
2:20 PM79 °FSunny.6 mph26%30.01 "Hg10 mi
1:50 PM77 °FPassing clouds.6 mph24%30.01 "HgN/A
1:20 PM75 °FPassing clouds.7 mph31%30.04 "HgN/A
12:50 PM75 °FPassing clouds.7 mph34%30.04 "HgN/A
12:20 PM75 °FSunny.6 mph34%30.04 "Hg10 mi
11:50 AM75 °FSunny.6 mph25%30.04 "Hg10 mi
11:20 AM73 °FSunny.3 mph31%30.07 "Hg10 mi
10:50 AM72 °FPassing clouds.5 mph36%30.07 "HgN/A
10:20 AM70 °FSunny.6 mph40%30.04 "Hg10 mi
9:50 AM68 °FSunny.3 mph40%30.07 "Hg10 mi
9:20 AM66 °FPassing clouds.5 mph49%30.07 "HgN/A
8:50 AM66 °FSunny.3 mph49%30.09 "Hg10 mi
8:20 AM63 °FSunny.5 mph59%30.09 "Hg10 mi
7:50 AM57 °FSunny.5 mph77%30.09 "Hg10 mi
7:20 AM54 °FSunny.6 mph88%30.09 "Hg10 mi
6:50 AM50 °FClear.2 mph94%30.07 "Hg10 mi
6:20 AM52 °FClear.2 mph88%30.07 "Hg10 mi
Weather by CustomWeather, © 2015

See weather overviewHow to use our weather pages